Satellite: MET-2/21 Catalog number: 22782 Epoch time: 10223.90061367 Element set: 0856 Inclination: 082.5450 deg RA of node: 208.2368 deg Eccentricity: 0.0020782 Arg of perigee: 244.7463 deg Mean anomaly: 115.1554 deg Mean motion: 13.83646098 rev/day Decay rate: 3.7e-07 rev/day^2 Epoch rev: 85578 Checksum: 311
Satellite: OKEAN-4 Catalog number: 23317 Epoch time: 10223.65533031 Element set: 0311 Inclination: 082.5430 deg RA of node: 302.0896 deg Eccentricity: 0.0023800 Arg of perigee: 061.5884 deg Mean anomaly: 298.7748 deg Mean motion: 14.82845741 rev/day Decay rate: 1.97e-06 rev/day^2 Epoch rev: 85467 Checksum: 300
Satellite: NOAA-14 Catalog number: 23455 Epoch time: 10223.69754683 Element set: 0157 Inclination: 098.8763 deg RA of node: 304.0494 deg Eccentricity: 0.0010327 Arg of perigee: 078.8000 deg Mean anomaly: 281.4347 deg Mean motion: 14.13790746 rev/day Decay rate: -5.0e-07 rev/day^2 Epoch rev: 80534 Checksum: 302
Satellite: NOAA-15 Catalog number: 25338 Epoch time: 10223.77063533 Element set: 0482 Inclination: 098.6222 deg RA of node: 209.7097 deg Eccentricity: 0.0009583 Arg of perigee: 274.5963 deg Mean anomaly: 085.4105 deg Mean motion: 14.24848358 rev/day Decay rate: 2.54e-06 rev/day^2 Epoch rev: 63666 Checksum: 325
Satellite: RESURS Catalog number: 25394 Epoch time: 10223.63837567 Element set: 0576 Inclination: 098.3044 deg RA of node: 238.6991 deg Eccentricity: 0.0002572 Arg of perigee: 064.8649 deg Mean anomaly: 295.2801 deg Mean motion: 14.24207405 rev/day Decay rate: -6.0e-08 rev/day^2 Epoch rev: 62824 Checksum: 309
Satellite: FENGYUN1 Catalog number: 25730 Epoch time: 10223.86807708 Element set: 0112 Inclination: 098.7867 deg RA of node: 187.3751 deg Eccentricity: 0.0023295 Arg of perigee: 106.3577 deg Mean anomaly: 254.0134 deg Mean motion: 14.08245290 rev/day Decay rate: 9.26e-06 rev/day^2 Epoch rev: 57952 Checksum: 309
Satellite: OKEAN-0 Catalog number: 25860 Epoch time: 10224.43360208 Element set: 70 Inclination: 097.8371 deg RA of node: 195.2356 deg Eccentricity: 0.0000599 Arg of perigee: 080.7473 deg Mean anomaly: 279.3809 deg Mean motion: 14.73654523 rev/day Decay rate: 7.1e-07 rev/day^2 Epoch rev: 59518 Checksum: 306
Satellite: NOAA-16 Catalog number: 26536 Epoch time: 10223.82958486 Element set: 0960 Inclination: 099.1699 deg RA of node: 242.6078 deg Eccentricity: 0.0010537 Arg of perigee: 176.2158 deg Mean anomaly: 183.9097 deg Mean motion: 14.12571538 rev/day Decay rate: 1.35e-06 rev/day^2 Epoch rev: 50968 Checksum: 341
Satellite: NOAA-17 Catalog number: 27453 Epoch time: 10223.92012025 Element set: 0954 Inclination: 098.4266 deg RA of node: 272.1081 deg Eccentricity: 0.0011305 Arg of perigee: 339.5661 deg Mean anomaly: 020.5030 deg Mean motion: 14.24179901 rev/day Decay rate: -2.1e-07 rev/day^2 Epoch rev: 42263 Checksum: 255
Satellite: NOAA-18 Catalog number: 28654 Epoch time: 10223.87989485 Element set: 0440 Inclination: 098.9525 deg RA of node: 169.9921 deg Eccentricity: 0.0013316 Arg of perigee: 256.5487 deg Mean anomaly: 103.4190 deg Mean motion: 14.11378480 rev/day Decay rate: -8.2e-07 rev/day^2 Epoch rev: 26929 Checksum: 339
Satellite: NOAA-19 Catalog number: 33591 Epoch time: 10223.73830147 Element set: 0636 Inclination: 098.7898 deg RA of node: 164.6837 deg Eccentricity: 0.0014836 Arg of perigee: 129.4343 deg Mean anomaly: 230.8125 deg Mean motion: 14.11075876 rev/day Decay rate: 2.91e-06 rev/day^2 Epoch rev: 07774 Checksum: 327
/EX SB KEPS @ AMSAT $ORB10224.M Orbital Elements 10224.MISC
HR AMSAT ORBITAL ELEMENTS FOR MANNED AND MISCELLANEOUS SATELLITES FROM WA5QGD FORT WORTH,TX August 12, 2010 Send Subscribe/unsubscribe to KEPS at http://www.amsat.org/mailman/listinfo/keps BID: ORB10224.M TO ALL RADIO AMATEURS BT
Satellite: HUBBLE Catalog number: 20580 Epoch time: 10223.16905948 Element set: 625 Inclination: 028.4692 deg RA of node: 240.9217 deg Eccentricity: 0.0003329 Arg of perigee: 071.6612 deg Mean anomaly: 288.4341 deg Mean motion: 15.01013541 rev/day Decay rate: 5.24e-06 rev/day^2 Epoch rev: 91302 Checksum: 260
Satellite: ISS Catalog number: 25544 Epoch time: 10225.02010417 Element set: 696 Inclination: 051.6476 deg RA of node: 299.7730 deg Eccentricity: 0.0006444 Arg of perigee: 215.8269 deg Mean anomaly: 153.3787 deg Mean motion: 15.71754969 rev/day Decay rate: 1.4034e-04 rev/day^2 Epoch rev: 67241 Checksum: 310
Satellite: CO-58 Catalog number: 28895 Epoch time: 10223.70311294 Element set: 0655 Inclination: 098.0073 deg RA of node: 106.3205 deg Eccentricity: 0.0018990 Arg of perigee: 109.9426 deg Mean anomaly: 250.3848 deg Mean motion: 14.59919241 rev/day Decay rate: 2.22e-06 rev/day^2 Epoch rev: 25508 Checksum: 309
Satellite: FALCON Catalog number: 30776 Epoch time: 10224.71765493 Element set: 890 Inclination: 035.4336 deg RA of node: 061.0626 deg Eccentricity: 0.0002017 Arg of perigee: 310.3431 deg Mean anomaly: 049.7107 deg Mean motion: 15.03759662 rev/day Decay rate: 9.40e-06 rev/day^2 Epoch rev: 18857 Checksum: 284
Satellite: MAST Catalog number: 31126 Epoch time: 10223.63473047 Element set: 0937 Inclination: 097.9331 deg RA of node: 262.7688 deg Eccentricity: 0.0095781 Arg of perigee: 054.2605 deg Mean anomaly: 306.7435 deg Mean motion: 14.53610204 rev/day Decay rate: 2.94e-06 rev/day^2 Epoch rev: 17611 Checksum: 291
Satellite: CAPE1 Catalog number: 31130 Epoch time: 10224.08448448 Element set: 956 Inclination: 097.9387 deg RA of node: 260.4955 deg Eccentricity: 0.0103850 Arg of perigee: 061.0035 deg Mean anomaly: 300.1530 deg Mean motion: 14.52209208 rev/day Decay rate: 3.31e-06 rev/day^2 Epoch rev: 17577 Checksum: 272
Satellite: COMPASS Catalog number: 32787 Epoch time: 10223.19894539 Element set: 0747 Inclination: 097.8911 deg RA of node: 287.1901 deg Eccentricity: 0.0016915 Arg of perigee: 105.4219 deg Mean anomaly: 254.8861 deg Mean motion: 14.81931403 rev/day Decay rate: 2.67e-06 rev/day^2 Epoch rev: 12364 Checksum: 316
Satellite: AAUSAT2 Catalog number: 32788 Epoch time: 10223.12912983 Element set: 0741 Inclination: 097.8920 deg RA of node: 287.2623 deg Eccentricity: 0.0016711 Arg of perigee: 105.5452 deg Mean anomaly: 254.7649 deg Mean motion: 14.82075586 rev/day Decay rate: 4.2e-07 rev/day^2 Epoch rev: 12364 Checksum: 303
Satellite: DO-64 Catalog number: 32789 Epoch time: 10223.87481527 Element set: 0760 Inclination: 097.8983 deg RA of node: 288.5337 deg Eccentricity: 0.0016775 Arg of perigee: 101.9130 deg Mean anomaly: 258.3964 deg Mean motion: 14.82249335 rev/day Decay rate: 6.49e-06 rev/day^2 Epoch rev: 12375 Checksum: 348
Satellite: CO-66 Catalog number: 32791 Epoch time: 10223.22902863 Element set: 0741 Inclination: 097.8925 deg RA of node: 287.2283 deg Eccentricity: 0.0017232 Arg of perigee: 103.3434 deg Mean anomaly: 256.9670 deg Mean motion: 14.81709581 rev/day Decay rate: 4.92e-06 rev/day^2 Epoch rev: 12360 Checksum: 307
Satellite: RS-30 Catalog number: 32953 Epoch time: 10224.47181116 Element set: 946 Inclination: 082.5037 deg RA of node: 354.6735 deg Eccentricity: 0.0018392 Arg of perigee: 343.1343 deg Mean anomaly: 016.9123 deg Mean motion: 12.43007188 rev/day Decay rate: 1.0e-07 rev/day^2 Epoch rev: 10073 Checksum: 263
Satellite: TACSAT-3 Catalog number: 35001 Epoch time: 10223.48319329 Element set: 0371 Inclination: 040.4548 deg RA of node: 241.8410 deg Eccentricity: 0.0020749 Arg of perigee: 056.5261 deg Mean anomaly: 303.7534 deg Mean motion: 15.42271497 rev/day Decay rate: 4.734e-05 rev/day^2 Epoch rev: 06917 Checksum: 279
Satellite: PHARMSAT Catalog number: 35002 Epoch time: 10223.41895536 Element set: 0340 Inclination: 040.4685 deg RA of node: 240.0411 deg Eccentricity: 0.0023287 Arg of perigee: 059.6564 deg Mean anomaly: 300.6551 deg Mean motion: 15.42748425 rev/day Decay rate: 4.059e-05 rev/day^2 Epoch rev: 06918 Checksum: 274
Satellite: HAWKSAT1 Catalog number: 35003 Epoch time: 10223.40311774 Element set: 0369 Inclination: 040.4604 deg RA of node: 233.2284 deg Eccentricity: 0.0020885 Arg of perigee: 077.7434 deg Mean anomaly: 282.5719 deg Mean motion: 15.46327500 rev/day Decay rate: 9.246e-05 rev/day^2 Epoch rev: 06926 Checksum: 281
Satellite: CP6 Catalog number: 35004 Epoch time: 10223.43201366 Element set: 357 Inclination: 040.4609 deg RA of node: 231.6757 deg Eccentricity: 0.0019482 Arg of perigee: 084.2307 deg Mean anomaly: 276.0729 deg Mean motion: 15.47343120 rev/day Decay rate: 1.1624e-04 rev/day^2 Epoch rev: 6927 Checksum: 276
Satellite: AEROCUB3 Catalog number: 35005 Epoch time: 10224.35753401 Element set: 407 Inclination: 040.4682 deg RA of node: 220.4446 deg Eccentricity: 0.0018057 Arg of perigee: 110.0933 deg Mean anomaly: 250.1826 deg Mean motion: 15.54961068 rev/day Decay rate: 4.3345e-04 rev/day^2 Epoch rev: 6948 Checksum: 270
Satellite: CASTOR Catalog number: 35694 Epoch time: 10224.44218752 Element set: 637 Inclination: 051.6228 deg RA of node: 255.5901 deg Eccentricity: 0.0005438 Arg of perigee: 007.4300 deg Mean anomaly: 352.7329 deg Mean motion: 16.25174980 rev/day Decay rate: 6.96839e-03 rev/day^2 Epoch rev: 6012 Checksum: 300
Satellite: METEOR-M Catalog number: 35865 Epoch time: 10224.57232722 Element set: 553 Inclination: 098.7537 deg RA of node: 277.9558 deg Eccentricity: 0.0001758 Arg of perigee: 186.2688 deg Mean anomaly: 173.8464 deg Mean motion: 14.21831220 rev/day Decay rate: 1.76e-06 rev/day^2 Epoch rev: 4673 Checksum: 322
Satellite: RS-38 Catalog number: 35869 Epoch time: 10224.53770658 Element set: 567 Inclination: 098.7530 deg RA of node: 277.9577 deg Eccentricity: 0.0004134 Arg of perigee: 192.9379 deg Mean anomaly: 167.1658 deg Mean motion: 14.21986469 rev/day Decay rate: 1.77e-06 rev/day^2 Epoch rev: 4673 Checksum: 367
/EX
participants (1)
-
Ray Hoad